Date,TemperatureHighF,TemperatureAvgF,TemperatureLowF,DewpointHighF,DewpointAvgF,DewpointLowF,HumidityHigh,HumidityAvg,HumidityLow,PressureMaxIn,PressureMinIn,WindSpeedMaxMPH,WindSpeedAvgMPH,GustSpeedMaxMPH,PrecipitationSumIn
2013-1-1,78,70,63,65,61,58,91,73,56,30.19,30.04,15,6,31,0.00
2013-1-2,80,70,60,67,64,60,98,83,56,30.08,29.98,20,4,33,0.00
2013-1-3,81,72,65,68,66,64,98,84,56,30.12,30.01,70,5,167,0.00
2013-1-4,81,71,65,70,67,64,99,88,61,30.22,30.09,8,4,12,0.00
2013-1-5,75,68,65,69,66,64,98,93,79,30.24,30.15,45,5,46,0.00
2013-1-6,81,72,65,72,68,64,99,89,68,30.19,30.04,43,9,46,0.00
2013-1-7,73,69,66,71,68,65,99,96,86,30.15,30.06,10,5,15,0.00
2013-1-8,81,74,69,72,70,68,98,89,70,30.19,30.07,31,7,46,0.00
2013-1-9,80,76,72,72,70,69,97,83,72,30.27,30.15,23,10,48,0.00
2013-1-10,78,74,71,69,67,64,86,76,61,30.29,30.17,39,10,128,0.00
2013-1-11,79,74,69,70,68,66,92,80,69,30.25,30.14,33,7,45,0.00
2013-1-12,79,74,68,69,67,66,93,79,63,30.17,30.08,70,7,72,0.00
2013-1-13,80,73,68,68,66,63,94,76,61,30.12,30.06,70,8,72,0.00
2013-1-14,79,72,65,67,65,63,95,79,60,30.16,30.10,14,5,32,0.00
2013-1-15,78,72,67,69,66,64,97,81,64,30.13,30.04,18,6,46,0.00
2013-1-16,80,72,64,69,67,63,98,84,63,30.10,30.00,30,6,104,0.00
2013-1-17,80,71,61,70,66,55,98,84,68,30.08,29.96,20,8,44,0.00
2013-1-18,71,63,52,58,54,47,82,71,62,30.22,30.08,74,11,74,0.00
2013-1-19,69,66,64,68,64,57,99,91,66,30.21,30.08,12,4,39,0.00
2013-1-20,79,69,62,68,63,-100,100,89,64,30.13,30.00,12,4,18,0.00
2013-1-21,80,71,65,71,67,64,98,88,65,30.06,29.95,11,4,40,0.00
2013-1-22,75,66,61,64,59,53,98,78,59,30.20,29.99,17,9,35,0.00
2013-1-23,73,64,58,59,56,53,92,74,50,30.29,30.19,54,8,54,0.00
2013-1-24,74,64,56,56,53,42,94,70,41,30.28,30.18,10,6,52,0.00
2013-1-25,75,64,55,61,56,53,96,79,53,30.27,30.17,35,6,67,0.00
2013-1-26,78,66,55,62,58,52,98,78,46,30.24,30.15,9,4,15,0.00
2013-1-27,77,69,60,62,59,57,96,74,52,30.28,30.18,11,6,31,0.00
2013-1-28,79,73,68,67,63,60,85,72,56,30.30,30.21,14,8,41,0.00
2013-1-29,78,72,65,69,66,64,97,83,68,30.23,30.11,14,7,56,0.00
2013-1-30,79,73,68,67,65,63,85,73,63,30.12,29.95,18,10,29,0.00
2013-1-31,65,62,55,62,54,44,97,73,57,30.17,30.05,15,8,23,0.00